Location: Shepherdstown, WV
(39.4326°N, 77.8042°W)
Time: 16:29:51
(UTC-04:00)

Tiros 1 despin weight - Pass Details

Date: 04 August 2021
Orbit: 593 x 641 km, 48.2° (Epoch: 18 September)

Event Time Altitude Azimuth Distance (km) Brightness Sun altitude
Rises 17:35:23 0° 301° (WNW) 2,943 ? 30.2°
Reaches altitude 10° 17:37:50 10° 308° (NW) 2,033 ? 29.7°
Maximum altitude 17:42:17 42° 20° (NNE) 919 ? 28.9°
Drops below altitude 10° 17:46:42 10° 91° (E) 2,018 ? 28.0°
Sets 17:49:07 0° 99° (E) 2,920 ? 27.6°
